Location: Wapato
(46.4478°N, 120.4212°W)
Time: 10:09:29
(UTC+00:00)

Injun/Solrad 3 - Pass Details

Date: 14 May 2026
Orbit: 867 x 989 km, 66.8° (Epoch: 10 June)

Event Time Altitude Azimuth Distance (km) Brightness Sun altitude
Rises 10:36:09 0° 310° (NW) 3,694 11.1 -15.7°
Reaches altitude 10° 10:40:30 10° 283° (WNW) 2,750 10.1 -15.3°
Maximum altitude 10:42:55 12° 260° (W) 2,577 9.8 -15.0°
Enters shadow 10:42:57 12° 260° (W) 2,577 9.8 -15.0°
Drops below altitude 10° 10:45:21 10° 238° (WSW) 2,744 - -14.7°
Sets 10:49:42 0° 210° (SSW) 3,679 - -14.2°
